Home   Weather   Salisbury   Past weeks

Flag for United Kingdom Past Weather in Salisbury, England, United Kingdom — Yesterday and Last 2 Weeks

Now
68 °F

Scattered clouds.


Feels Like: 68 °F
Forecast: 55 / 65 °F
Wind: 8 mph from West

Location: Boscombe Down

Current Time: Jul 25, 2017 at 10:02:00 pm

Latest Report: Jul 25, 2017 at 8:50 pm


Visibility: N/A

Pressure: 29.92 "Hg

Humidity: 73%

Dew Point: 59 °F

Location of SalisburyLocation

Past Weather in Salisbury — Graph

°F

Salisbury Temperature Yesterday

Maximum temperature yesterday: 72 °F (at 3:50 pm)
Minimum temperature yesterday: 57 °F (at 12:50 am)
Average temperature yesterday: 63 °F

High & Low Weather Summary for the Past Weeks

 TemperatureHumidityPressure
High79 °F (Jul 18, 1:50 pm)100% (Jul 11, 9:03 am)30.27 "Hg (Jul 11, 9:03 am)
Low46 °F (Jul 23, 5:50 am)31% (Jul 17, 1:50 pm)29.65 "Hg (Jul 19, 4:50 am)
Average62 °F79%29.95 "Hg
* Reported Jul 10 7:50 pm — Jul 25 7:50 pm, Salisbury. Weather by CustomWeather, © 2017

Note: Actual official high and low records may vary slightly from our data, if they occured in-between our weather recording intervals... More about our weather records

Advertising

Salisbury Weather History for the Previous 24 Hours

Scroll right to see more
 ConditionsComfort  
Time TempWeatherWind HumidityBarometerVisibility
7:50 pm
Tue, Jul 25
70 °FMild.13 mph69%29.92 "HgN/A
6:50 pm73 °FPassing clouds.12 mph47%29.92 "HgN/A
5:50 pm77 °FSunny.10 mph47%29.95 "Hg10 mi
4:50 pm75 °FSunny.6 mph47%29.95 "Hg10 mi
3:50 pm77 °FScattered clouds.8 mph47%29.95 "HgN/A
2:50 pm75 °FScattered clouds.7 mph50%29.98 "HgN/A
1:50 pm75 °FScattered clouds.7 mph54%30.01 "HgN/A
12:50 pm72 °FScattered clouds.8 mph61%30.01 "HgN/A
11:50 am70 °FPassing clouds.5 mph64%30.01 "HgN/A
10:50 am68 °FPassing clouds.3 mph69%30.04 "HgN/A
9:50 am64 °FScattered clouds.6 mph73%30.04 "HgN/A
9:31 am63 °FScattered clouds.7 mph77%30.04 "HgN/A
8:50 am63 °FPassing clouds.6 mph77%30.04 "HgN/A
7:50 am59 °FPassing clouds.6 mph88%30.04 "HgN/A
6:50 am55 °FSunny.3 mph94%30.04 "Hg10 mi
5:50 am54 °FPartly sunny.6 mph94%30.04 "HgN/A
4:50 am54 °FCool.8 mph94%30.04 "HgN/A
3:50 am54 °FCool.8 mph94%30.04 "HgN/A
2:50 am54 °FCool.6 mph100%30.04 "HgN/A
1:50 am55 °FCool.6 mph94%30.07 "HgN/A
12:50 am57 °FCool.7 mph88%30.07 "HgN/A
11:50 pm
Mon, Jul 24
59 °FCool.5 mph88%30.07 "HgN/A
10:50 pm63 °FMild.5 mph77%30.07 "HgN/A
Weather by CustomWeather, © 2017

See weather overviewHow to use our weather pages